Weather History for Perry, IA

Change the Weather History Date:

Thursday, June 28, 2012

  Actual Average Record
Temperature  
Mean Temperature 84 °F -  
Max Temperature 90 °F 84 °F 98 °F (1963)
Min Temperature 78 °F 61 °F 51 °F (1985)
Cooling Degree Days 20    
Growing Degree Days 34 (Base 50)    
Moisture  
Dew Point 72 °F    
Average Humidity 66    
Maximum Humidity 75    
Minimum Humidity 55    
Precipitation  
Precipitation 0.00 in - - ()
Sea Level Pressure  
Sea Level Pressure 29.86 in    
Wind  
Wind Speed 8 mph (North)    
Max Wind Speed 14 mph    
Max Gust Speed 17 mph    
Visibility 10 miles    
Events Rain    
Averages and records for this station are not official NWS values.
T = Trace of Precipitation, MM = Missing Value Source: NWS Daily Summary

Daily Weather History Graph

Daily Weather History Graph

Search for Another Location

Airport:

Trip Planner

Search our weather history database for the weather conditions in past years. The results will help you decide how hot, cold, wet, or windy it might be!

Date:

Astronomy

Jun. 28, 2012 Rise Set
Actual Time 5:44 AM CDT 8:55 PM CDT
Civil Twilight 5:10 AM CDT 9:29 PM CDT
Nautical Twilight 4:26 AM CDT 10:13 PM CDT
Astronomical Twilight 3:33 AM CDT 11:06 PM CDT
Moon 3:28 PM CDT (6/28) 1:20 AM CDT (6/28)
Length of Visible Light 16h 19m
Length of Day
15h 11m
Waxing Gibbous, 67% of the Moon is Illuminated
Jun 28
Waxing Gibbous
Jul 3
Full
Jul 10
Last Quarter
Jul 18
New
Jul 26
First Quarter

Hourly Weather History & Observations

Time (CDT) Temp. Heat Index Dew Point Humidity Pressure Visibility Wind Dir Wind Speed Gust Speed Precip Events Conditions
12:15 AM 87.1 °F 92.0 °F 70.0 °F 57% 29.76 in 10.0 mi SSW 11.5 mph - N/A   Clear
12:35 AM 87.3 °F 92.0 °F 70.0 °F 56% 29.76 in 10.0 mi SSW 12.7 mph - N/A   Clear
12:55 AM 87.1 °F 92.0 °F 70.2 °F 57% 29.76 in 10.0 mi SSW 11.5 mph - N/A   Clear
1:15 AM 86.0 °F 90.7 °F 70.3 °F 59% 29.76 in 10.0 mi SSW 9.2 mph - N/A   Clear
1:35 AM 84.6 °F 89.4 °F 70.7 °F 63% 29.76 in 10.0 mi SSW 8.1 mph - N/A   Clear
1:55 AM 84.4 °F 88.7 °F 70.0 °F 62% 29.76 in 10.0 mi SSW 8.1 mph - N/A   Clear
2:15 AM 87.1 °F 91.3 °F 68.9 °F 55% 29.76 in 10.0 mi SW 10.4 mph - N/A   Clear
2:35 AM 86.4 °F 90.4 °F 68.9 °F 56% 29.76 in 10.0 mi SW 11.5 mph 16.1 mph N/A   Clear
3:13 AM 84.2 °F 88.4 °F 69.8 °F 62% 29.76 in 10.0 mi SSW 9.2 mph 16.1 mph N/A   Clear
3:55 AM 84.4 °F 87.9 °F 68.5 °F 59% 29.78 in 10.0 mi SW 8.1 mph - N/A   Clear
4:55 AM 82.6 °F 85.7 °F 68.5 °F 62% 29.79 in 10.0 mi West 8.1 mph - N/A   Clear
5:15 AM 81.0 °F 84.1 °F 68.9 °F 67% 29.80 in 10.0 mi WSW 8.1 mph - N/A   Clear
5:35 AM 80.1 °F 82.9 °F 69.1 °F 69% 29.80 in 10.0 mi WSW 6.9 mph - N/A   Clear
5:55 AM 79.2 °F - 69.3 °F 72% 29.81 in 10.0 mi WSW 6.9 mph - N/A   Clear
6:15 AM 79.7 °F - 69.4 °F 71% 29.81 in 10.0 mi West 5.8 mph - N/A   Clear
6:35 AM 79.2 °F - 70.0 °F 73% 29.83 in 10.0 mi WSW 4.6 mph - N/A   Clear
6:55 AM 79.7 °F - 70.7 °F 74% 29.84 in 10.0 mi West 5.8 mph - N/A   Scattered Clouds
7:15 AM 80.1 °F 83.6 °F 71.1 °F 74% 29.84 in 10.0 mi West 6.9 mph - N/A   Scattered Clouds
7:35 AM 81.0 °F 85.2 °F 72.1 °F 74% 29.85 in 10.0 mi NW 4.6 mph - N/A   Clear
7:55 AM 82.4 °F 88.4 °F 73.8 °F 75% 29.86 in 7.0 mi NW 4.6 mph - N/A   Clear
8:15 AM 82.9 °F 89.7 °F 74.3 °F 75% 29.87 in 7.0 mi NW 6.9 mph - N/A   Clear
8:35 AM 84.2 °F 91.9 °F 74.7 °F 73% 29.87 in 10.0 mi North 4.6 mph - N/A   Clear
8:55 AM 85.3 °F 93.7 °F 74.8 °F 71% 29.87 in 10.0 mi North 6.9 mph - N/A   Clear
9:35 AM 85.6 °F 94.2 °F 74.8 °F 70% 29.89 in 10.0 mi North 11.5 mph - N/A   Clear
9:55 AM 86.5 °F 95.5 °F 75.0 °F 68% 29.89 in 10.0 mi North 13.8 mph 17.3 mph N/A   Clear
10:15 AM 86.4 °F 95.5 °F 75.0 °F 69% 29.89 in 10.0 mi NNW 10.4 mph - N/A   Scattered Clouds
10:35 AM 86.9 °F 96.8 °F 75.6 °F 69% 29.89 in 10.0 mi North 13.8 mph - N/A   Scattered Clouds
10:55 AM 88.0 °F 98.0 °F 75.6 °F 66% 29.90 in 10.0 mi North 10.4 mph - N/A   Scattered Clouds
11:15 AM 87.3 °F 97.2 °F 75.4 °F 68% 29.90 in 10.0 mi North 11.5 mph 17.3 mph N/A   Scattered Clouds
11:55 AM 87.3 °F 97.2 °F 75.6 °F 68% 29.91 in 10.0 mi NNE 8.1 mph - N/A   Scattered Clouds
12:15 PM 87.4 °F 96.7 °F 74.8 °F 66% 29.91 in 10.0 mi North 6.9 mph - N/A   Clear
12:35 PM 87.6 °F 97.6 °F 75.6 °F 67% 29.91 in 10.0 mi NNE 4.6 mph - N/A   Clear
12:55 PM 88.7 °F 98.2 °F 74.7 °F 63% 29.91 in 10.0 mi NNE 5.8 mph - N/A   Clear
1:15 PM 88.7 °F 98.2 °F 74.7 °F 63% 29.92 in 10.0 mi NNE 5.8 mph - N/A   Clear
1:35 PM 88.7 °F 98.2 °F 74.8 °F 63% 29.91 in 10.0 mi NE 3.5 mph - N/A   Clear
2:15 PM 90.7 °F 101.9 °F 75.4 °F 61% 29.91 in 10.0 mi NNE 4.6 mph - N/A   Clear
2:55 PM 89.8 °F 101.5 °F 76.1 °F 64% 29.93 in 10.0 mi NW 5.8 mph - N/A   Scattered Clouds
3:15 PM 90.5 °F 101.5 °F 75.6 °F 61% 29.93 in 10.0 mi North 6.9 mph - N/A   Scattered Clouds
3:35 PM 88.7 °F 99.8 °F 75.9 °F 66% 29.92 in 10.0 mi North 6.9 mph - N/A   Unknown
3:55 PM 88.7 °F 100.4 °F 76.3 °F 67% 29.89 in 10.0 mi East 5.8 mph - N/A   Unknown
4:15 PM 86.9 °F 97.8 °F 76.5 °F 71% 29.93 in 10.0 mi Calm Calm - N/A Rain Light Rain
4:35 PM 86.2 °F 97.4 °F 77.0 °F 74% 29.91 in 10.0 mi NNE 4.6 mph - N/A   Unknown
4:55 PM 86.0 °F 96.9 °F 77.0 °F 74% 29.89 in 10.0 mi East 9.2 mph - N/A   Unknown
5:15 PM 85.8 °F 96.8 °F 77.0 °F 75% 29.91 in 10.0 mi Calm Calm - N/A   Unknown
6:15 PM 88.5 °F 98.8 °F 75.6 °F 65% 29.89 in 10.0 mi ENE 5.8 mph - N/A   Unknown
6:55 PM 87.1 °F 96.8 °F 75.2 °F 68% 29.87 in 10.0 mi NE 9.2 mph - N/A   Unknown
7:15 PM 88.2 °F 99.0 °F 75.9 °F 67% 29.88 in 10.0 mi ENE 6.9 mph - N/A   Unknown
7:35 PM 88.7 °F 98.7 °F 75.0 °F 64% 29.90 in 10.0 mi East 3.5 mph - N/A   Unknown
8:15 PM 86.9 °F 96.4 °F 75.4 °F 68% 29.89 in 10.0 mi NE 4.6 mph - N/A   Unknown
8:55 PM 84.6 °F 90.0 °F 71.4 °F 65% 29.89 in 10.0 mi NE 5.8 mph - N/A   Unknown
9:15 PM 83.1 °F 86.6 °F 68.9 °F 62% 29.90 in 10.0 mi North 5.8 mph - N/A   Unknown
9:35 PM 82.6 °F 85.7 °F 68.4 °F 62% 29.91 in 10.0 mi NNE 5.8 mph - N/A   Unknown
9:55 PM 81.1 °F 83.7 °F 67.6 °F 63% 29.91 in 10.0 mi NNE 4.6 mph - N/A   Unknown
10:15 PM 80.4 °F 83.0 °F 67.6 °F 65% 29.92 in 7.0 mi NE 4.6 mph - N/A   Unknown
10:35 PM 79.0 °F - 68.0 °F 69% 29.91 in 10.0 mi NNE 4.6 mph - N/A   Unknown
10:55 PM 79.3 °F - 67.5 °F 67% 29.91 in 10.0 mi Calm Calm - N/A   Unknown
11:35 PM 79.7 °F - 68.0 °F 67% 29.91 in 10.0 mi Calm Calm - N/A   Unknown
11:55 PM 78.6 °F - 68.0 °F 70% 29.90 in 10.0 mi Calm Calm - N/A   Unknown